Time,TemperatureF,DewpointF,PressureIn,WindDirection,WindDirectionDegrees,WindSpeedMPH,WindSpeedGustMPH,Humidity,HourlyPrecipIn,Conditions,Clouds,dailyrainin,SoftwareType,DateUTC
2013-05-20 00:13:00,63.1,61.0,30.07,ESE,105,0.0,-999.0,93,-99.99,,,0.00,weatherlink.com 1.10,2013-05-20 05:13:00,
2013-05-20 00:28:00,62.9,61.0,30.07,ESE,105,0.0,-999.0,93,-99.99,,,0.00,weatherlink.com 1.10,2013-05-20 05:28:00,
2013-05-20 00:43:00,62.5,61.0,30.06,ESE,105,0.0,-999.0,94,-99.99,,,0.00,weatherlink.com 1.10,2013-05-20 05:43:00,
2013-05-20 00:58:00,62.2,61.0,30.06,ESE,105,0.0,-999.0,94,-99.99,,,0.00,weatherlink.com 1.10,2013-05-20 05:58:00,
2013-05-20 01:14:00,62.0,61.0,30.05,ESE,105,0.0,-999.0,95,-99.99,,,0.00,weatherlink.com 1.10,2013-05-20 06:14:00,
2013-05-20 01:29:00,61.9,61.0,30.05,ESE,105,0.0,-999.0,95,-99.99,,,0.00,weatherlink.com 1.10,2013-05-20 06:29:00,
2013-05-20 01:44:00,61.9,61.0,30.05,ESE,105,0.0,-999.0,96,-99.99,,,0.00,weatherlink.com 1.10,2013-05-20 06:44:00,
2013-05-20 01:59:00,62.0,61.0,30.06,ESE,105,0.0,-999.0,96,-99.99,,,0.00,weatherlink.com 1.10,2013-05-20 06:59:00,
2013-05-20 02:14:00,61.9,61.0,30.06,ESE,105,0.0,-999.0,96,-99.99,,,0.00,weatherlink.com 1.10,2013-05-20 07:14:00,
2013-05-20 02:29:00,61.6,61.0,30.06,ESE,105,0.0,-999.0,96,-99.99,,,0.00,weatherlink.com 1.10,2013-05-20 07:29:00,
2013-05-20 02:44:00,61.7,61.0,30.06,ESE,105,0.0,-999.0,96,-99.99,,,0.00,weatherlink.com 1.10,2013-05-20 07:44:00,
2013-05-20 02:59:00,61.6,61.0,30.06,ESE,105,0.0,-999.0,96,-99.99,,,0.00,weatherlink.com 1.10,2013-05-20 07:59:00,
2013-05-20 03:14:00,61.6,61.0,30.06,ESE,105,0.0,-999.0,96,-99.99,,,0.00,weatherlink.com 1.10,2013-05-20 08:14:00,
2013-05-20 03:29:00,61.3,60.0,30.06,ESE,105,0.0,-999.0,96,-99.99,,,0.00,weatherlink.com 1.10,2013-05-20 08:29:00,
2013-05-20 03:44:00,61.4,60.0,30.06,ESE,105,0.0,-999.0,96,-99.99,,,0.00,weatherlink.com 1.10,2013-05-20 08:44:00,
2013-05-20 03:59:00,61.2,60.0,30.06,ESE,105,0.0,-999.0,96,-99.99,,,0.00,weatherlink.com 1.10,2013-05-20 08:59:00,
2013-05-20 04:14:00,61.3,60.0,30.05,ESE,105,0.0,-999.0,96,-99.99,,,0.00,weatherlink.com 1.10,2013-05-20 09:14:00,
2013-05-20 04:29:00,61.3,60.0,30.06,ESE,105,0.0,-999.0,96,-99.99,,,0.00,weatherlink.com 1.10,2013-05-20 09:29:00,
2013-05-20 04:44:00,61.2,60.0,30.06,ESE,105,0.0,-999.0,96,-99.99,,,0.00,weatherlink.com 1.10,2013-05-20 09:44:00,
2013-05-20 04:59:00,61.1,60.0,30.07,ESE,105,0.0,-999.0,96,-99.99,,,0.00,weatherlink.com 1.10,2013-05-20 09:59:00,
2013-05-20 05:14:00,60.9,60.0,30.07,ESE,105,0.0,-999.0,95,-99.99,,,0.00,weatherlink.com 1.10,2013-05-20 10:14:00,
2013-05-20 05:29:00,60.4,59.0,30.08,ESE,105,0.0,-999.0,96,-99.99,,,0.00,weatherlink.com 1.10,2013-05-20 10:29:00,
2013-05-20 05:44:00,60.4,59.0,30.08,ESE,105,0.0,-999.0,96,-99.99,,,0.00,weatherlink.com 1.10,2013-05-20 10:44:00,
2013-05-20 05:59:00,60.4,59.0,30.09,East,99,0.0,-999.0,96,-99.99,,,0.00,weatherlink.com 1.10,2013-05-20 10:59:00,
2013-05-20 06:14:00,60.4,60.0,30.09,East,99,0.0,-999.0,97,-99.99,,,0.00,weatherlink.com 1.10,2013-05-20 11:14:00,
2013-05-20 06:29:00,61.5,61.0,30.10,East,100,0.0,-999.0,97,-99.99,,,0.00,weatherlink.com 1.10,2013-05-20 11:29:00,
2013-05-20 06:44:00,62.2,61.0,30.11,East,100,0.0,-999.0,97,-99.99,,,0.00,weatherlink.com 1.10,2013-05-20 11:44:00,
2013-05-20 06:59:00,63.2,62.0,30.11,East,100,0.0,-999.0,97,-99.99,,,0.00,weatherlink.com 1.10,2013-05-20 11:59:00,
2013-05-20 07:14:00,64.0,63.0,30.11,East,100,0.0,-999.0,97,-99.99,,,0.00,weatherlink.com 1.10,2013-05-20 12:14:00,
2013-05-20 07:29:00,64.7,63.0,30.11,East,100,0.0,-999.0,95,-99.99,,,0.00,weatherlink.com 1.10,2013-05-20 12:29:00,
2013-05-20 07:44:00,65.6,64.0,30.12,ESE,103,0.0,-999.0,93,-99.99,,,0.00,weatherlink.com 1.10,2013-05-20 12:44:00,
2013-05-20 07:59:00,66.6,64.0,30.12,East,100,0.0,-999.0,92,-99.99,,,0.00,weatherlink.com 1.10,2013-05-20 12:59:00,
2013-05-20 08:14:00,68.0,65.0,30.13,East,100,0.0,-999.0,89,-99.99,,,0.00,weatherlink.com 1.10,2013-05-20 13:14:00,
2013-05-20 08:29:00,68.8,65.0,30.13,East,100,0.0,-999.0,88,-99.99,,,0.00,weatherlink.com 1.10,2013-05-20 13:29:00,
2013-05-20 08:44:00,69.6,66.0,30.13,ESE,102,0.0,-999.0,88,-99.99,,,0.00,weatherlink.com 1.10,2013-05-20 13:44:00,
2013-05-20 08:59:00,71.2,67.0,30.13,ESE,103,0.0,-999.0,86,-99.99,,,0.00,weatherlink.com 1.10,2013-05-20 13:59:00,
2013-05-20 09:14:00,71.7,67.0,30.14,ESE,105,0.0,-999.0,85,-99.99,,,0.00,weatherlink.com 1.10,2013-05-20 14:14:00,
2013-05-20 09:29:00,72.1,68.0,30.13,SE,134,0.0,-999.0,86,-99.99,,,0.00,weatherlink.com 1.10,2013-05-20 14:29:00,
2013-05-20 09:44:00,72.3,68.0,30.13,SSW,192,1.0,-999.0,85,-99.99,,,0.00,weatherlink.com 1.10,2013-05-20 14:44:00,
2013-05-20 09:59:00,72.9,68.0,30.14,SSW,205,3.0,-999.0,85,-99.99,,,0.00,weatherlink.com 1.10,2013-05-20 14:59:00,
2013-05-20 10:14:00,72.8,68.0,30.14,SW,218,6.0,-999.0,86,-99.99,,,0.00,weatherlink.com 1.10,2013-05-20 15:14:00,
2013-05-20 10:29:00,72.9,69.0,30.13,WSW,240,2.0,-999.0,87,-99.99,,,0.00,weatherlink.com 1.10,2013-05-20 15:29:00,
2013-05-20 10:44:00,73.9,69.0,30.13,SSW,202,6.0,-999.0,85,-99.99,,,0.00,weatherlink.com 1.10,2013-05-20 15:44:00,
2013-05-20 10:59:00,73.7,69.0,30.13,SSW,206,6.0,-999.0,84,-99.99,,,0.00,weatherlink.com 1.10,2013-05-20 15:59:00,
2013-05-20 11:14:00,73.7,69.0,30.13,WSW,257,5.0,-999.0,85,-99.99,,,0.00,weatherlink.com 1.10,2013-05-20 16:14:00,
2013-05-20 11:29:00,74.2,69.0,30.13,WNW,286,3.0,-999.0,84,-99.99,,,0.00,weatherlink.com 1.10,2013-05-20 16:29:00,
2013-05-20 11:44:00,74.3,69.0,30.12,WSW,244,13.0,-999.0,83,-99.99,,,0.00,weatherlink.com 1.10,2013-05-20 16:44:00,
2013-05-20 11:59:00,75.3,70.0,30.12,WSW,239,9.0,-999.0,82,-99.99,,,0.00,weatherlink.com 1.10,2013-05-20 16:59:00,
2013-05-20 12:14:00,75.6,69.0,30.12,SSE,168,2.0,-999.0,81,-99.99,,,0.00,weatherlink.com 1.10,2013-05-20 17:14:00,
2013-05-20 12:29:00,76.7,70.0,30.12,SSW,211,4.0,-999.0,79,-99.99,,,0.00,weatherlink.com 1.10,2013-05-20 17:29:00,
2013-05-20 12:44:00,76.4,69.0,30.12,SW,232,7.0,-999.0,78,-99.99,,,0.00,weatherlink.com 1.10,2013-05-20 17:44:00,
2013-05-20 12:59:00,76.8,69.0,30.11,SW,221,0.0,-999.0,76,-99.99,,,0.00,weatherlink.com 1.10,2013-05-20 17:59:00,
2013-05-20 13:14:00,77.6,69.0,30.11,WSW,249,5.0,-999.0,74,-99.99,,,0.00,weatherlink.com 1.10,2013-05-20 18:14:00,
2013-05-20 13:29:00,79.0,69.0,30.10,SSW,209,4.0,-999.0,71,-99.99,,,0.00,weatherlink.com 1.10,2013-05-20 18:29:00,
2013-05-20 13:44:00,79.3,69.0,30.10,SW,229,6.0,-999.0,70,-99.99,,,0.00,weatherlink.com 1.10,2013-05-20 18:44:00,
2013-05-20 13:59:00,79.7,69.0,30.10,SSW,213,4.0,-999.0,69,-99.99,,,0.00,weatherlink.com 1.10,2013-05-20 18:59:00,
2013-05-20 14:14:00,81.2,70.0,30.09,SW,225,7.0,-999.0,68,-99.99,,,0.00,weatherlink.com 1.10,2013-05-20 19:14:00,
2013-05-20 14:29:00,81.8,70.0,30.08,South,182,0.0,-999.0,68,-99.99,,,0.00,weatherlink.com 1.10,2013-05-20 19:29:00,
2013-05-20 14:44:00,81.5,71.0,30.08,ESE,114,0.0,-999.0,71,-99.99,,,0.00,weatherlink.com 1.10,2013-05-20 19:44:00,
2013-05-20 14:59:00,81.1,71.0,30.08,South,190,0.0,-999.0,71,-99.99,,,0.00,weatherlink.com 1.10,2013-05-20 19:59:00,
2013-05-20 15:15:00,82.5,70.0,30.07,SE,140,0.0,-999.0,67,-99.99,,,0.00,weatherlink.com 1.10,2013-05-20 20:15:00,
2013-05-20 15:30:00,81.8,70.0,30.07,SSE,166,0.0,-999.0,67,-99.99,,,0.00,weatherlink.com 1.10,2013-05-20 20:30:00,
2013-05-20 15:45:00,81.8,70.0,30.07,East,82,1.0,-999.0,68,-99.99,,,0.00,weatherlink.com 1.10,2013-05-20 20:45:00,
2013-05-20 16:00:00,82.7,70.0,30.07,SSW,193,0.0,-999.0,65,-99.99,,,0.00,weatherlink.com 1.10,2013-05-20 21:00:00,
2013-05-20 16:15:00,82.4,70.0,30.06,SSE,149,0.0,-999.0,66,-99.99,,,0.00,weatherlink.com 1.10,2013-05-20 21:15:00,
2013-05-20 16:30:00,81.7,70.0,30.06,East,96,2.0,-999.0,68,-99.99,,,0.00,weatherlink.com 1.10,2013-05-20 21:30:00,
2013-05-20 16:45:00,82.6,71.0,30.06,WSW,242,0.0,-999.0,68,-99.99,,,0.00,weatherlink.com 1.10,2013-05-20 21:45:00,
2013-05-20 17:00:00,83.0,71.0,30.05,ESE,111,0.0,-999.0,67,-99.99,,,0.00,weatherlink.com 1.10,2013-05-20 22:00:00,
2013-05-20 17:15:00,83.0,70.0,30.05,SSW,206,4.0,-999.0,66,-99.99,,,0.00,weatherlink.com 1.10,2013-05-20 22:15:00,
2013-05-20 17:30:00,81.9,70.0,30.05,South,171,0.0,-999.0,68,-99.99,,,0.00,weatherlink.com 1.10,2013-05-20 22:30:00,
2013-05-20 17:45:00,82.2,71.0,30.04,East,92,0.0,-999.0,68,-99.99,,,0.00,weatherlink.com 1.10,2013-05-20 22:45:00,
2013-05-20 18:15:00,81.1,70.0,30.04,SSW,207,3.0,-999.0,69,-99.99,,,0.00,weatherlink.com 1.10,2013-05-20 23:15:00,
2013-05-20 18:30:00,80.4,70.0,30.04,South,188,0.0,-999.0,70,-99.99,,,0.00,weatherlink.com 1.10,2013-05-20 23:30:00,
2013-05-20 18:45:00,79.9,70.0,30.04,SSE,156,0.0,-999.0,71,-99.99,,,0.00,weatherlink.com 1.10,2013-05-20 23:45:00,
2013-05-20 19:00:00,79.3,70.0,30.04,SSE,165,0.0,-999.0,72,-99.99,,,0.00,weatherlink.com 1.10,2013-05-21 00:00:00,
2013-05-20 19:15:00,78.4,70.0,30.04,SSE,165,0.0,-999.0,74,-99.99,,,0.00,weatherlink.com 1.10,2013-05-21 00:15:00,
2013-05-20 19:30:00,77.2,70.0,30.05,SSE,165,0.0,-999.0,77,-99.99,,,0.00,weatherlink.com 1.10,2013-05-21 00:30:00,
2013-05-20 19:45:00,76.1,69.0,30.04,SSE,165,0.0,-999.0,79,-99.99,,,0.00,weatherlink.com 1.10,2013-05-21 00:45:00,
2013-05-20 20:00:00,75.0,69.0,30.04,SSE,165,0.0,-999.0,82,-99.99,,,0.00,weatherlink.com 1.10,2013-05-21 01:00:00,
2013-05-20 20:15:00,73.8,68.0,30.04,SSE,165,0.0,-999.0,83,-99.99,,,0.00,weatherlink.com 1.10,2013-05-21 01:15:00,
2013-05-20 20:30:00,73.3,68.0,30.03,SSE,165,0.0,-999.0,83,-99.99,,,0.00,weatherlink.com 1.10,2013-05-21 01:30:00,
2013-05-20 20:45:00,72.7,68.0,30.03,SSE,165,0.0,-999.0,84,-99.99,,,0.00,weatherlink.com 1.10,2013-05-21 01:45:00,
2013-05-20 21:00:00,72.2,68.0,30.03,SSE,157,0.0,-999.0,85,-99.99,,,0.00,weatherlink.com 1.10,2013-05-21 02:00:00,
2013-05-20 21:15:00,71.9,67.0,30.03,SSE,157,0.0,-999.0,85,-99.99,,,0.00,weatherlink.com 1.10,2013-05-21 02:15:00,
2013-05-20 21:30:00,71.3,67.0,30.04,SSE,157,0.0,-999.0,86,-99.99,,,0.00,weatherlink.com 1.10,2013-05-21 02:30:00,
2013-05-20 21:45:00,70.2,67.0,30.04,SSE,157,0.0,-999.0,88,-99.99,,,0.00,weatherlink.com 1.10,2013-05-21 02:45:00,
2013-05-20 22:00:00,69.9,67.0,30.04,SSE,157,0.0,-999.0,89,-99.99,,,0.00,weatherlink.com 1.10,2013-05-21 03:00:00,
2013-05-20 22:15:00,69.6,67.0,30.04,SSE,157,0.0,-999.0,90,-99.99,,,0.00,weatherlink.com 1.10,2013-05-21 03:15:00,
2013-05-20 22:30:00,69.2,67.0,30.05,SSE,157,0.0,-999.0,91,-99.99,,,0.00,weatherlink.com 1.10,2013-05-21 03:30:00,
2013-05-20 22:45:00,68.3,66.0,30.04,SSE,157,0.0,-999.0,91,-99.99,,,0.00,weatherlink.com 1.10,2013-05-21 03:45:00,
2013-05-20 23:00:00,67.8,66.0,30.05,SSE,157,0.0,-999.0,92,-99.99,,,0.00,weatherlink.com 1.10,2013-05-21 04:00:00,
2013-05-20 23:16:00,67.9,66.0,30.05,SSE,157,0.0,-999.0,93,-99.99,,,0.00,weatherlink.com 1.10,2013-05-21 04:16:00,
2013-05-20 23:31:00,67.5,66.0,30.05,SSE,157,0.0,-999.0,94,-99.99,,,0.00,weatherlink.com 1.10,2013-05-21 04:31:00,
2013-05-20 23:46:00,67.4,66.0,30.05,SSE,157,0.0,-999.0,94,-99.99,,,0.00,weatherlink.com 1.10,2013-05-21 04:46:00,